Terminal Aerodrome Forecast
Issued by NWS Chicago, IL

Home | Current Version | Previous Version | Graphics & Text | Print | Product List | Glossary On
Versions: 1 2 3 4 5 6 7 8 9 10 11 12 13 14 15 16 17 18 19 20 21 22 23 24 25 26 27 28 29 30 31
158
FTUS43 KLOT 202055 AAA
TAFRFD
TAF AMD
KRFD 202055Z 2021/2118 20013G19KT P6SM SCT250
     FM210000 18009KT P6SM SCT250
     FM210300 17009KT P6SM BKN250 WS010/21045KT
     FM211200 18012G18KT P6SM BKN200
     FM211700 18016G25KT P6SM SCT080 BKN150=

USA.gov is the U.S. government's official web portal to all federal, state and local government web resources and services.